Das Wetter in  D-61279 Heinzenberg / Taunus





Wetter Minimum- & Maximum-Werte im Juli 2007

Standort: Heinzenberg / Taunus - Höhe 297 m         8 24' 1" Ost 50 21' 51" Nord
(   3-stündige Aktualisierung    letzte Aktualisierung um 19:04 am 31.07.2007  )


Messgrösse

Minimum

Maximum

Durchschnitt

Temperatur West /
Luftfeuchte West
Anklicken für Monats-Diagramm

6,8 C

06:01
31.07.2007

27 %

16:22
16.07.2007

34,4 C

16:51
15.07.2007

96 %

07:18
06.07.2007

Temp

17,1 C

Feuchte

75 %

Temperatur Ost /
Luftfeuchte Ost
Anklicken für Monats-Diagramm

7,2 C

06:11
31.07.2007

--

--
--

34,7 C

16:51
15.07.2007

--

--
--

17,4 C

--

Luftdruck Anklicken für Monats-Diagramm

999,6 hPa

08:39
24.07.2007

1021,3 hPa

07:46
31.07.2007

1013,4 hPa

Taupunkt

4,8 C

06:01
31.07.2007

19,7 C

09:41
15.07.2007

12,3 C

Windchill
( gefühlte Temperatur )

2,5 C

08:00
30.07.2007

34,4 C

16:51
15.07.2007

15,0 C

Windgeschwindigkeit /
Windrichtung
Anklicken für Monats-Diagramm

---

55,9 km/h / W

14:38
06.07.2007

11,3 km/h
W-SW

Helligkeit /
Sonnenschein
Anklicken für Monats-Diagramm
Anklicken für Monats-Diagramm

Sonnenschein:

192:30 Stunden

Max: 13:50 Std am
15.07.2007

125 klux

13:45
10.07.2007

35 klux

Solarstrahlung Anklicken für Monats-Diagramm

---

855 W/m

13:45
10.07.2007

258 W/m

Regenmenge
    Juli 2007
Anklicken für Monats-Diagramm

Insgesamt 113,4 l/m

in 65:59 Stunden
an 24 Tagen

25,8 l/m

05:40
02.07.2007

Gesamtmenge

113,4 l/m

Regen-Tage
    Juli 2007
Anklicken für Monats-Diagramm

>   0 mm/Tag

>   2 mm/Tag

>   5 mm/Tag

> 10 mm/Tag

> 20 mm/Tag

24 Tage     
13 Tage     
8 Tage     
3 Tage     
  1 Tag     

Eisige Tage Juli 2007 / 2006

Tmin ≤ -10C     

0 Tage

/

0 Tage

Eistage Juli 2007 / 2006

Tmax <     0C     

0 Tage

/

0 Tage

Frosttage Juli 2007 / 2006

Tmin ≤     0C     

0 Tage

/

0 Tage

Kalte Tage Juli 2007 / 2006

Tmax <   10C     

0 Tage

/

0 Tage

Warme Tage Juli 2007 / 2006

Tmax ≥   20C     

21 Tage

/

31 Tage

Sommertage Juli 2007 / 2006

Tmax ≥   25C     

8 Tage

/

30 Tage

Heisse Tage Juli 2007 / 2006

Tmax ≥   30C     

3 Tage

/

26 Tage


Monatsdiagramm Juli 2007

Die Kurven zeigen den Durchschnittswert des jeweiligen Tages an


Wetter-Monatsübersicht Juli 2007
Datum
  Temperatur
   Luftdruck
   Wind
  Regen
   Luftfeuchte
   Helligkeit

Sonnen-
schein


Temp.

Min.
Temp.

Max.
Temp.


Luftdruck

Min.
Luftdruck

Max.
Luftdruck

-Geschw.
Haupt-Richtg.

Max.
Wind

Menge /
Dauer


Feuchte

Min.
Feuchte

Max.
Feuchte


Helligkeit

Max.
Helligkeit

1.
Juli
18,6 C13,2 C
06:09
23,3 C
15:19
1010,8 hPa1008,1 hPa
17:49
1015,3 hPa
00:39
7,1 km/h
W-SW
28,6 km/h
16:29  
---
76 %62 %
19:19
91 %
07:39
33,4 klux91,5 klux
11:04
3:35 Std 
2.
Juli
17,4 C13,5 C
23:41
22,0 C
15:50
1008,0 hPa1006,1 hPa
15:50
1010,2 hPa
23:41
11,8 km/h
W-SW
39,7 km/h
16:20  
25,8 l/m
6:10 Stunden
78 %52 %
17:35
94 %
07:50
37,3 klux120,0 klux
12:45
5:15 Std 
3.
Juli
14,1 C12,4 C
23:47
16,5 C
09:16
1006,4 hPa1002,1 hPa
23:47
1010,2 hPa
00:16
11,9 km/h
W-SW
34,3 km/h
12:56  
11,9 l/m
5:56 Stunden
84 %75 %
09:16
94 %
13:46
20 klux84 klux
09:06
1:30 Std 
4.
Juli
12,8 C10,8 C
06:32
18,0 C
13:57
1005,5 hPa1002,1 hPa
00:02
1010,5 hPa
23:22
15,5 km/h
W
45,7 km/h
11:22  
6,4 l/m
3:01 Stunden
88 %61 %
14:02
95 %
02:12
29,0 klux123,0 klux
13:17
3:20 Std 
5.
Juli
13,3 C11,2 C
02:27
16,8 C
15:42
1011,4 hPa1010,0 hPa
13:57
1014,3 hPa
23:28
20,6 km/h
W
44,9 km/h
16:12  
4,3 l/m
6:45 Stunden
90 %80 %
15:47
95 %
14:47
21 klux121 klux
15:32
1:20 Std 
6.
Juli
15,5 C12,1 C
05:18
20,0 C
18:08
1010,8 hPa1008,7 hPa
12:08
1014,4 hPa
01:03
25,4 km/h
W
55,9 km/h
14:38  
3,8 l/m
3:05 Stunden
73 %50 %
17:28
96 %
07:18
42 klux123 klux
13:48
6:10 Std 
7.
Juli
16,3 C11,4 C
05:53
21,9 C
16:23
1015,9 hPa1013,2 hPa
00:03
1018,4 hPa
23:34
18,8 km/h
W
34,2 km/h
13:08  
---
64 %46 %
16:28
79 %
07:13
52 klux118 klux
13:13
11:35 Std 
8.
Juli
17,0 C9,4 C
06:04
23,8 C
16:29
1017,2 hPa1012,9 hPa
23:10
1020,0 hPa
06:04
2,1 km/h
W-SW
15,8 km/h
14:29  
1,8 l/m
45 Minuten
68 %49 %
14:29
89 %
08:04
47 klux115 klux
14:29
9:00 Std 
9.
Juli
15,2 C10,9 C
23:15
20,0 C
17:25
1012,3 hPa1010,6 hPa
19:20
1013,6 hPa
23:15
9,8 km/h
W
37,9 km/h
14:40  
4,4 l/m
3:25 Stunden
79 %58 %
19:00
94 %
07:30
35 klux119 klux
14:15
5:15 Std 
10.
Juli
13,3 C10,4 C
23:57
19,9 C
18:00
1012,6 hPa1010,5 hPa
18:00
1014,7 hPa
23:57
6,9 km/h
W
30,2 km/h
20:00  
7,8 l/m
3:46 Stunden
82 %51 %
18:00
95 %
09:15
39 klux125 klux
13:45
5:55 Std 
11.
Juli
12,5 C8,0 C
04:17
18,2 C
15:37
1014,3 hPa1011,7 hPa
15:37
1015,5 hPa
22:33
9,2 km/h
W-SW
32,1 km/h
15:32  
1,2 l/m
2:25 Stunden
86 %58 %
15:42
95 %
07:22
25 klux124 klux
13:02
2:00 Std 
12.
Juli
15,4 C12,2 C
04:58
20,2 C
15:53
1016,5 hPa1015,5 hPa
00:03
1018,3 hPa
23:49
13,6 km/h
W
28,5 km/h
13:08  
0,2 l/m
1:45 Stunden
80 %60 %
18:43
92 %
02:03
23 klux107 klux
13:03
1:25 Std 
13.
Juli
19,3 C15,1 C
00:34
25,2 C
18:59
1016,8 hPa1015,1 hPa
18:59
1018,3 hPa
00:39
10,5 km/h
W-SW
27,0 km/h
08:19  
0,5 l/m
1:20 Stunden
80 %63 %
19:19
91 %
04:49
30 klux121 klux
14:04
5:20 Std 
14.
Juli
22,6 C14,6 C
06:05
31,2 C
17:00
1015,4 hPa1014,4 hPa
17:00
1016,5 hPa
23:56
8,2 km/h
SW
33,0 km/h
14:45  
---
70 %46 %
17:00
92 %
08:00
50 klux105 klux
14:45
12:50 Std 
15.
Juli
25,0 C16,0 C
06:06
34,4 C
16:51
1014,6 hPa1011,0 hPa
18:11
1017,8 hPa
00:56
6,0 km/h
SW
32,1 km/h
14:16  
---
62 %35 %
17:56
90 %
07:31
51 klux92 klux
13:16
13:50 Std 
16.
Juli
25,0 C17,0 C
05:32
33,5 C
17:17
1012,6 hPa1010,1 hPa
17:37
1014,8 hPa
08:07
6,9 km/h
W-SW
30,2 km/h
15:37  
---
15 Minuten
50 %27 %
16:22
77 %
07:57
48,4 klux97,4 klux
14:17
10:45 Std 
17.
Juli
22,5 C17,8 C
23:59
28,0 C
16:57
1016,4 hPa1011,2 hPa
00:02
1020,1 hPa
23:59
11,4 km/h
W
33,4 km/h
03:17  
---
11 Minuten
58 %38 %
16:07
73 %
05:07
41,2 klux114,0 klux
12:47
8:45 Std 
18.
Juli
20,0 C13,2 C
06:29
26,8 C
13:34
1018,9 hPa1017,0 hPa
18:34
1020,6 hPa
07:19
5,9 km/h
W-SW
36,0 km/h
15:04  
1,7 l/m
25 Minuten
68 %45 %
13:39
84 %
07:54
43 klux115 klux
14:04
10:25 Std 
19.
Juli
16,9 C13,5 C
06:10
21,1 C
18:35
1018,5 hPa1016,6 hPa
18:35
1020,5 hPa
03:30
0,5 km/h
SO
12,4 km/h
18:35  
3,8 l/m
3:30 Stunden
87 %78 %
00:00
94 %
17:30
17 klux68 klux
17:55
2:00 Std 
20.
Juli
20,4 C15,0 C
02:11
27,5 C
16:46
1014,1 hPa1010,7 hPa
16:41
1017,3 hPa
01:56
9,9 km/h
W-SW
39,2 km/h
13:56  
1,8 l/m
30 Minuten
78 %49 %
16:46
95 %
08:16
42,4 klux112,0 klux
14:51
10:00 Std 
21.
Juli
16,8 C13,5 C
06:32
21,2 C
12:42
1016,9 hPa1014,2 hPa
21:57
1018,5 hPa
06:32
2,1 km/h
O-SO
22,1 km/h
13:37  
11,1 l/m
3:45 Stunden
81 %59 %
12:27
94 %
23:02
24 klux91 klux
11:07
4:00 Std 
22.
Juli
16,9 C12,8 C
23:59
22,8 C
15:38
1012,5 hPa1011,2 hPa
15:38
1014,3 hPa
01:07
11,1 km/h
W
45,1 km/h
12:43  
0,2 l/m
10 Minuten
74 %45 %
15:13
95 %
07:23
44,7 klux113,0 klux
14:43
8:05 Std 
23.
Juli
14,6 C9,5 C
06:44
19,3 C
16:04
1006,1 hPa999,7 hPa
20:09
1012,6 hPa
02:19
2,9 km/h
O-SO
31,3 km/h
19:44  
6,5 l/m
5:20 Stunden
85 %71 %
12:24
94 %
23:24
15 klux55 klux
08:04
55 Min 
24.
Juli
14,8 C12,2 C
23:25
18,9 C
18:14
1004,5 hPa999,6 hPa
08:39
1014,5 hPa
23:30
23,2 km/h
W-SW
51,1 km/h
14:39  
2,9 l/m
4:25 Stunden
84 %63 %
18:49
93 %
00:04
18,8 klux97,9 klux
15:54
2:35 Std 
25.
Juli
17,2 C11,5 C
05:55
24,1 C
16:55
1015,4 hPa1014,2 hPa
18:15
1017,1 hPa
10:20
11,6 km/h
W-SW
31,2 km/h
14:40  
0,2 l/m
55 Minuten
71 %44 %
17:00
91 %
00:45
50,0 klux112,0 klux
12:45
11:15 Std 
26.
Juli
19,3 C11,6 C
05:41
27,0 C
17:26
1012,8 hPa1008,9 hPa
19:21
1016,6 hPa
02:06
11,4 km/h
W-SW
37,5 km/h
13:51  
---
67 %44 %
17:31
89 %
08:11
49,4 klux99,8 klux
15:36
11:10 Std 
27.
Juli
20,2 C17,4 C
23:23
23,8 C
16:02
1013,1 hPa1009,3 hPa
00:17
1016,0 hPa
23:23
21,7 km/h
W
44,4 km/h
13:37  
---
61 %43 %
16:37
74 %
23:58
41 klux110 klux
13:27
6:55 Std 
28.
Juli
17,9 C16,0 C
23:24
21,5 C
17:28
1014,3 hPa1011,8 hPa
07:13
1017,2 hPa
23:24
13,5 km/h
W-SW
45,9 km/h
13:58  
7,9 l/m
2:30 Stunden
80 %66 %
18:18
94 %
15:18
28 klux125 klux
14:03
2:40 Std 
29.
Juli
14,9 C12,5 C
22:44
18,1 C
15:44
1012,5 hPa1007,6 hPa
15:44
1017,2 hPa
02:09
15,3 km/h
W-SW
43,6 km/h
16:09  
9,4 l/m
5:30 Stunden
86 %76 %
01:34
95 %
12:54
15 klux74 klux
15:24
10 Min 
30.
Juli
12,5 C8,6 C
06:35
17,5 C
15:00
1017,7 hPa1013,5 hPa
00:00
1019,9 hPa
23:56
16,8 km/h
W
34,5 km/h
13:25  
---
10 Minuten
77 %59 %
14:20
90 %
05:50
33,8 klux112,0 klux
13:45
5:41 Std 
31.
Juli
12,7 C6,8 C
06:01
18,8 C
18:50
1020,2 hPa1018,9 hPa
18:50
1021,3 hPa
07:46
7,2 km/h
NW
25,3 km/h
14:31  
---
72 %50 %
16:16
91 %
08:16
42 klux121 klux
12:26
8:49 Std 



Juli
2007

Temperatur

  

Luftdruck

  

Wind

  

Regen

  

Luftfeuchte

  

Helligkeit

Sonnen-
schein

Min

Max

Min

Max

Max

Max

Min

Max

Max

Max

17,1 C

6,8 C

06:01 Uhr
31.07.2007

34,4 C

16:51 Uhr
15.07.2007

1013,4 hPa

999,6 hPa

08:39 Uhr
24.07.2007

1021,3 hPa

07:46 Uhr
31.07.2007

11,3 km/h

W-SW

55,9 km/h

14:38 Uhr
06.07.2007

25,8 l/m

6:10 Stunden
02.07.2007

75 %

27 %

16:22 Uhr
16.07.2007

96 %

07:18 Uhr
06.07.2007

35 klux

125,0 klux

13:45 Uhr
10.07.2007

13:50 Std

am
15.07.2007

Gesamt

Gesamt

113,4 l/m

24 Tage
65:59 h

192:30 Std


Wetter-Diagramme Juli 2007     Heinzenberg / Taunus   
TemperaturLuftfeuchte
SolarstrahlungLuftdruck
HelligkeitSonnenschein
RegenmengeRegendauer
Wind-GeschwindigkeitWind-Richtung